| time (UTC) | temp F | wind direction | speed MPH | gust MPH | rain 1hr in | rain 24hr in | rain mn in | humidity % | barometer mb |
| 20260506013419 | 49 | 212 | 0.0 | 0.0 | 0.16 | 0.98 | 0.98 | 95 | 1005.9 |
| 20260506012838 | 49 | 212 | 0.0 | 0.0 | 0.16 | 0.97 | 0.97 | 95 | 1005.8 |
| 20260506012337 | 49 | 212 | 0.0 | 0.0 | 0.16 | 0.96 | 0.96 | 95 | 1006.2 |
| 20260506011814 | 49 | 212 | 0.0 | 0.0 | 0.15 | 0.95 | 0.95 | 95 | 1006.0 |
| 20260506011302 | 49 | 212 | 0.0 | 0.0 | 0.15 | 0.94 | 0.95 | 95 | 1006.2 |
| 20260506011018 | 49 | 212 | 0.0 | 0.0 | 0.17 | 0.93 | 0.93 | 95 | 1006.5 |
| 20260506010252 | 49 | 212 | 0.0 | 0.0 | 0.17 | 0.92 | 0.92 | 95 | 1006.3 |
| 20260506005740 | 49 | 212 | 0.0 | 0.0 | 0.17 | 0.91 | 0.92 | 95 | 1006.4 |
| 20260506005239 | 49 | 212 | 0.0 | 2.0 | 0.18 | 0.90 | 0.90 | 95 | 1006.4 |
| 20260506004736 | 49 | 212 | 0.0 | 2.0 | 0.18 | 0.88 | 0.89 | 95 | 1006.5 |
| 20260506004238 | 49 | 212 | 0.0 | 2.0 | 0.17 | 0.84 | 0.85 | 95 | 1006.8 |
| 20260506003237 | 49 | 212 | 0.0 | 0.0 | 0.20 | 0.82 | 0.82 | 95 | 1006.3 |
| 20260506002735 | 49 | 212 | 0.0 | 0.0 | 0.20 | 0.81 | 0.81 | 95 | 1005.9 |
| 20260506002228 | 49 | 212 | 0.0 | 0.0 | 0.22 | 0.80 | 0.80 | 95 | 1006.2 |
| 20260506001716 | 49 | 212 | 0.0 | 0.0 | 0.22 | 0.79 | 0.79 | 95 | 1006.0 |
| 20260506001201 | 49 | 212 | 0.0 | 0.0 | 0.24 | 0.78 | 0.78 | 95 | 1006.3 |
| 20260506000701 | 49 | 212 | 0.0 | 1.0 | 0.23 | 0.76 | 0.76 | 95 | 1006.4 |
| 20260506000159 | 49 | 212 | 0.0 | 2.0 | 0.22 | 0.75 | 0.75 | 94 | 1006.6 |
| 20260505235651 | 49 | 212 | 0.0 | 2.0 | 0.24 | 0.74 | 0.74 | 94 | 1006.0 |
| 20260505235142 | 49 | 212 | 0.0 | 1.0 | 0.24 | 0.72 | 0.72 | 94 | 1006.5 |
| 20260505234905 | 49 | 212 | 0.0 | 1.0 | 0.23 | 0.69 | 0.69 | 94 | 1006.6 |
| 20260505234137 | 49 | 212 | 0.0 | 0.0 | 0.24 | 0.67 | 0.67 | 94 | 1006.4 |
| 20260505233855 | 49 | 212 | 0.0 | 0.0 | 0.25 | 0.65 | 0.65 | 94 | 1006.2 |
| 20260505233129 | 49 | 212 | 0.0 | 0.0 | 0.24 | 0.62 | 0.62 | 94 | 1006.3 |
| 20260505232630 | 49 | 212 | 0.0 | 1.0 | 0.24 | 0.60 | 0.60 | 94 | 1006.0 |
| 20260505232128 | 49 | 212 | 0.0 | 1.0 | 0.23 | 0.58 | 0.58 | 94 | 1005.9 |
| 20260505231628 | 49 | 212 | 0.0 | 1.0 | 0.23 | 0.57 | 0.57 | 94 | 1006.0 |
| 20260505231123 | 49 | 212 | 0.0 | 0.0 | 0.21 | 0.54 | 0.54 | 94 | 1006.3 |
| 20260505230620 | 49 | 212 | 0.0 | 0.0 | 0.21 | 0.53 | 0.53 | 94 | 1006.2 |
| 20260505225557 | 49 | 212 | 0.0 | 2.0 | 0.20 | 0.49 | 0.50 | 94 | 1006.0 |
| 20260505225033 | 50 | 212 | 0.0 | 4.0 | 0.19 | 0.47 | 0.48 | 94 | 1005.9 |
| 20260505224531 | 50 | 212 | 1.0 | 5.0 | 0.19 | 0.45 | 0.46 | 93 | 1005.9 |
| 20260505224024 | 50 | 196 | 0.0 | 5.0 | 0.19 | 0.43 | 0.43 | 93 | 1006.3 |
| 20260505223525 | 50 | 259 | 0.0 | 1.0 | 0.18 | 0.39 | 0.40 | 94 | 1006.2 |
| 20260505222953 | 50 | 259 | 0.0 | 2.0 | 0.18 | 0.37 | 0.37 | 93 | 1005.8 |
| 20260505222441 | 50 | 273 | 0.0 | 3.0 | 0.18 | 0.35 | 0.35 | 93 | 1006.3 |
| 20260505222159 | 50 | 284 | 0.0 | 3.0 | 0.18 | 0.34 | 0.35 | 93 | 1006.2 |
| 20260505221437 | 50 | 289 | 1.0 | 5.0 | 0.19 | 0.34 | 0.34 | 93 | 1005.8 |
| 20260505220934 | 50 | 258 | 1.0 | 5.0 | 0.19 | 0.33 | 0.33 | 93 | 1005.9 |
| 20260505220420 | 51 | 271 | 1.0 | 5.0 | 0.20 | 0.31 | 0.32 | 93 | 1005.8 |
| 20260505215920 | 51 | 179 | 1.0 | 5.0 | 0.21 | 0.30 | 0.30 | 93 | 1006.2 |
| 20260505215415 | 51 | 302 | 0.0 | 3.0 | 0.19 | 0.28 | 0.29 | 93 | 1006.2 |
| 20260505214909 | 51 | 232 | 0.0 | 2.0 | 0.21 | 0.28 | 0.28 | 93 | 1006.2 |
| 20260505214408 | 51 | 231 | 1.0 | 3.0 | 0.19 | 0.25 | 0.25 | 93 | 1006.2 |
| 20260505213858 | 51 | 246 | 1.0 | 3.0 | 0.18 | 0.23 | 0.24 | 93 | 1005.9 |
| 20260505213351 | 51 | 258 | 1.0 | 4.0 | 0.17 | 0.20 | 0.20 | 92 | 1005.9 |
| 20260505212849 | 51 | 254 | 2.0 | 7.0 | 0.15 | 0.18 | 0.19 | 92 | 1005.8 |
| 20260505212343 | 52 | 219 | 1.0 | 7.0 | 0.15 | 0.17 | 0.17 | 92 | 1005.8 |
| 20260505211840 | 52 | 166 | 2.0 | 8.0 | 0.14 | 0.16 | 0.16 | 92 | 1005.7 |
| 20260505211337 | 52 | 315 | 2.0 | 11.0 | 0.14 | 0.15 | 0.15 | 92 | 1005.8 |
| 20260505210834 | 53 | 350 | 2.0 | 11.0 | 0.12 | 0.13 | 0.13 | 92 | 1005.8 |
| 20260505210334 | 54 | 302 | 3.0 | 9.0 | 0.11 | 0.11 | 0.11 | 92 | 1005.7 |
| 20260505205829 | 54 | 263 | 2.0 | 9.0 | 0.09 | 0.09 | 0.09 | 91 | 1005.8 |
| 20260505205323 | 54 | 170 | 2.0 | 6.0 | 0.08 | 0.08 | 0.08 | 91 | 1005.8 |
| 20260505204821 | 55 | 238 | 2.0 | 9.0 | 0.07 | 0.07 | 0.07 | 91 | 1005.7 |
| 20260505204309 | 55 | 242 | 3.0 | 10.0 | 0.06 | 0.06 | 0.06 | 90 | 1005.6 |
| 20260505204030 | 55 | 254 | 2.0 | 10.0 | 0.05 | 0.05 | 0.05 | 89 | 1005.6 |
| 20260505203258 | 56 | 248 | 1.0 | 7.0 | 0.03 | 0.03 | 0.03 | 89 | 1005.7 |
| 20260505202754 | 56 | 310 | 2.0 | 5.0 | 0.03 | 0.03 | 0.03 | 88 | 1005.5 |
| 20260505202243 | 56 | 303 | 2.0 | 7.0 | 0.02 | 0.02 | 0.02 | 87 | 1005.5 |
| 20260505202007 | 56 | 144 | 3.0 | 7.0 | 0.02 | 0.02 | 0.02 | 85 | 1005.5 |
| 20260505201243 | 57 | 312 | 2.0 | 6.0 | 0.01 | 0.01 | 0.01 | 84 | 1005.5 |
| 20260505200457 | 58 | 244 | 2.0 | 6.0 | 0.00 | 0.00 | 0.00 | 82 | 1005.3 |
| 20260505195735 | 59 | 269 | 2.0 | 9.0 | 0.00 | 0.00 | 0.00 | 82 | 1005.1 |
| 20260505195236 | 59 | 242 | 2.0 | 9.0 | 0.00 | 0.00 | 0.00 | 81 | 1005.1 |
| 20260505194731 | 59 | 292 | 2.0 | 7.0 | 0.00 | 0.00 | 0.00 | 80 | 1005.0 |
| 20260505194232 | 58 | 213 | 2.0 | 7.0 | 0.00 | 0.00 | 0.00 | 80 | 1005.1 |
| 20260505193729 | 58 | 227 | 1.0 | 4.0 | 0.00 | 0.00 | 0.00 | 81 | 1005.1 |
| 20260505193215 | 58 | 215 | 2.0 | 9.0 | 0.00 | 0.00 | 0.00 | 80 | 1005.4 |
| 20260505192715 | 59 | 239 | 2.0 | 9.0 | 0.00 | 0.00 | 0.00 | 80 | 1005.3 |
| 20260505192210 | 59 | 207 | 3.0 | 7.0 | 0.00 | 0.00 | 0.00 | 80 | 1005.4 |
| 20260505191703 | 59 | 343 | 3.0 | 9.0 | 0.00 | 0.00 | 0.00 | 80 | 1005.3 |
| 20260505191203 | 59 | 182 | 3.0 | 12.0 | 0.00 | 0.00 | 0.00 | 80 | 1005.3 |
| 20260505190647 | 59 | 277 | 2.0 | 12.0 | 0.00 | 0.00 | 0.00 | 80 | 1005.2 |
| 20260505190147 | 59 | 276 | 1.0 | 9.0 | 0.00 | 0.00 | 0.00 | 82 | 1005.4 |
| 20260505185643 | 59 | 284 | 2.0 | 6.0 | 0.00 | 0.00 | 0.00 | 81 | 1005.3 |
| 20260505185144 | 59 | 246 | 2.0 | 6.0 | 0.00 | 0.00 | 0.00 | 81 | 1005.2 |
| 20260505184641 | 58 | 281 | 3.0 | 7.0 | 0.00 | 0.00 | 0.00 | 81 | 1005.2 |
| 20260505184141 | 58 | 207 | 2.0 | 7.0 | 0.00 | 0.00 | 0.00 | 81 | 1005.3 |
| 20260505183637 | 59 | 172 | 2.0 | 7.0 | 0.00 | 0.00 | 0.00 | 81 | 1005.4 |
| 20260505183358 | 59 | 182 | 2.0 | 7.0 | 0.00 | 0.00 | 0.00 | 81 | 1005.5 |
| 20260505182629 | 59 | 179 | 3.0 | 10.0 | 0.00 | 0.00 | 0.00 | 81 | 1005.4 |
| 20260505182129 | 59 | 259 | 4.0 | 11.0 | 0.00 | 0.00 | 0.00 | 80 | 1005.3 |
| 20260505181626 | 59 | 257 | 4.0 | 11.0 | 0.00 | 0.00 | 0.00 | 79 | 1005.3 |
| 20260505181119 | 60 | 190 | 4.0 | 12.0 | 0.00 | 0.00 | 0.00 | 79 | 1005.1 |
| 20260505180840 | 60 | 305 | 4.0 | 12.0 | 0.00 | 0.00 | 0.00 | 78 | 1005.2 |
| 20260505180106 | 60 | 142 | 4.0 | 11.0 | 0.00 | 0.00 | 0.00 | 77 | 1005.1 |
| 20260505175603 | 61 | 200 | 3.0 | 11.0 | 0.00 | 0.00 | 0.00 | 76 | 1004.9 |
| 20260505175056 | 61 | 340 | 3.0 | 10.0 | 0.00 | 0.00 | 0.00 | 76 | 1004.8 |
| 20260505174555 | 62 | 271 | 4.0 | 13.0 | 0.00 | 0.00 | 0.00 | 74 | 1004.8 |
| 20260505174057 | 62 | 227 | 6.0 | 16.0 | 0.00 | 0.00 | 0.00 | 73 | 1004.7 |
| 20260505173556 | 63 | 265 | 6.0 | 16.0 | 0.00 | 0.00 | 0.00 | 72 | 1004.6 |
| 20260505173054 | 64 | 302 | 6.0 | 14.0 | 0.00 | 0.00 | 0.00 | 70 | 1004.5 |
| 20260505172549 | 64 | 307 | 6.0 | 13.0 | 0.00 | 0.00 | 0.00 | 70 | 1004.5 |
| 20260505172051 | 64 | 276 | 5.0 | 13.0 | 0.00 | 0.00 | 0.00 | 70 | 1004.5 |
| 20260505171548 | 64 | 341 | 5.0 | 15.0 | 0.00 | 0.00 | 0.00 | 72 | 1004.3 |
| 20260505171046 | 63 | 267 | 5.0 | 15.0 | 0.00 | 0.00 | 0.00 | 73 | 1004.3 |
| 20260505170542 | 62 | 62 | 4.0 | 14.0 | 0.00 | 0.00 | 0.00 | 73 | 1004.3 |
| 20260505170035 | 62 | 269 | 4.0 | 15.0 | 0.00 | 0.00 | 0.00 | 74 | 1004.4 |
| 20260505165536 | 61 | 168 | 5.0 | 15.0 | 0.00 | 0.00 | 0.00 | 74 | 1004.3 |
| 20260505164534 | 62 | 201 | 4.0 | 11.0 | 0.00 | 0.00 | 0.00 | 71 | 1004.5 |
| 20260505164033 | 63 | 289 | 4.0 | 11.0 | 0.00 | 0.00 | 0.00 | 69 | 1004.3 |
| 20260505163529 | 64 | 343 | 4.0 | 11.0 | 0.00 | 0.00 | 0.00 | 67 | 1004.4 |
| 20260505163027 | 66 | 257 | 3.0 | 10.0 | 0.00 | 0.00 | 0.00 | 66 | 1004.4 |
| 20260505162526 | 67 | 72 | 3.0 | 10.0 | 0.00 | 0.00 | 0.00 | 63 | 1004.2 |
| 20260505162015 | 69 | 257 | 3.0 | 9.0 | 0.00 | 0.00 | 0.00 | 65 | 1004.1 |
| 20260505161514 | 69 | 207 | 3.0 | 9.0 | 0.00 | 0.00 | 0.00 | 64 | 1003.7 |
| 20260505161014 | 68 | 292 | 2.0 | 9.0 | 0.00 | 0.00 | 0.00 | 67 | 1003.6 |
| 20260505160512 | 67 | 231 | 3.0 | 10.0 | 0.00 | 0.00 | 0.00 | 67 | 1003.4 |
| 20260505152954 | 65 | 202 | 4.0 | 11.0 | 0.00 | 0.00 | 0.00 | 69 | 1004.5 |
| 20260505152454 | 65 | 263 | 3.0 | 11.0 | 0.00 | 0.00 | 0.00 | 68 | 1004.3 |
| 20260505151952 | 66 | 218 | 3.0 | 13.0 | 0.00 | 0.00 | 0.00 | 68 | 1004.3 |
| 20260505151447 | 66 | 211 | 4.0 | 19.0 | 0.00 | 0.00 | 0.00 | 67 | 1004.0 |
| 20260505150946 | 66 | 247 | 5.0 | 19.0 | 0.00 | 0.00 | 0.00 | 67 | 1004.0 |
| 20260505150707 | 66 | 215 | 6.0 | 17.0 | 0.00 | 0.00 | 0.00 | 66 | 1003.9 |
| 20260505140400 | 65 | 229 | 4.0 | 11.0 | 0.00 | 0.00 | 0.00 | 69 | 1002.7 |
| 20260505124825 | 66 | 174 | 3.0 | 6.0 | 0.00 | 0.00 | 0.00 | 67 | 1002.6 |
| 20260505124325 | 66 | 102 | 4.0 | 11.0 | 0.00 | 0.00 | 0.00 | 67 | 1002.4 |
| 20260505123321 | 66 | 206 | 3.0 | 12.0 | 0.00 | 0.00 | 0.00 | 67 | 1002.3 |
| 20260505122822 | 65 | 173 | 3.0 | 12.0 | 0.00 | 0.00 | 0.00 | 66 | 1002.4 |
| 20260505122319 | 65 | 225 | 3.0 | 10.0 | 0.00 | 0.00 | 0.00 | 67 | 1002.3 |
| 20260505121819 | 65 | 196 | 3.0 | 10.0 | 0.00 | 0.00 | 0.00 | 68 | 1002.2 |
| 20260505121310 | 65 | 211 | 3.0 | 10.0 | 0.00 | 0.00 | 0.00 | 67 | 1002.1 |
| 20260505120808 | 65 | 231 | 4.0 | 12.0 | 0.00 | 0.00 | 0.00 | 67 | 1002.2 |
| 20260505120305 | 65 | 111 | 4.0 | 12.0 | 0.00 | 0.00 | 0.00 | 67 | 1001.7 |
| 20260505115804 | 65 | 221 | 4.0 | 13.0 | 0.00 | 0.00 | 0.00 | 67 | 1001.8 |
| 20260505115258 | 65 | 194 | 3.0 | 13.0 | 0.00 | 0.00 | 0.00 | 67 | 1001.7 |
| 20260505115021 | 65 | 154 | 3.0 | 15.0 | 0.00 | 0.00 | 0.00 | 68 | 1001.6 |
| 20260505114258 | 65 | 266 | 4.0 | 15.0 | 0.00 | 0.00 | 0.00 | 67 | 1001.7 |
| 20260505113753 | 65 | 180 | 4.0 | 11.0 | 0.00 | 0.00 | 0.00 | 68 | 1001.6 |
| 20260505113253 | 65 | 249 | 4.0 | 12.0 | 0.00 | 0.00 | 0.00 | 68 | 1001.6 |
| 20260505112753 | 65 | 227 | 4.0 | 12.0 | 0.00 | 0.00 | 0.00 | 68 | 1001.5 |
| 20260505112249 | 65 | 207 | 3.0 | 11.0 | 0.00 | 0.00 | 0.00 | 68 | 1001.3 |
| 20260505111746 | 65 | 219 | 3.0 | 13.0 | 0.00 | 0.00 | 0.00 | 68 | 1001.3 |
| 20260505111246 | 64 | 207 | 3.0 | 13.0 | 0.00 | 0.00 | 0.00 | 68 | 1001.3 |
| 20260505110742 | 64 | 138 | 3.0 | 10.0 | 0.00 | 0.00 | 0.00 | 68 | 1001.2 |
| 20260505110458 | 64 | 217 | 3.0 | 11.0 | 0.00 | 0.00 | 0.00 | 68 | 1000.9 |
| 20260505102215 | 64 | 217 | 1.0 | 5.0 | 0.00 | 0.00 | 0.00 | 68 | 1000.4 |
| 20260505101712 | 64 | 276 | 2.0 | 10.0 | 0.00 | 0.00 | 0.00 | 68 | 1000.3 |
| 20260505101213 | 64 | 237 | 2.0 | 10.0 | 0.00 | 0.00 | 0.00 | 67 | 1000.3 |
| 20260505100707 | 64 | 254 | 2.0 | 7.0 | 0.00 | 0.00 | 0.00 | 67 | 1000.4 |
| 20260505100159 | 64 | 172 | 2.0 | 10.0 | 0.00 | 0.00 | 0.00 | 67 | 1000.2 |
| 20260505095701 | 65 | 221 | 3.0 | 10.0 | 0.00 | 0.00 | 0.00 | 67 | 1000.1 |
| 20260505095136 | 65 | 142 | 2.0 | 10.0 | 0.00 | 0.00 | 0.00 | 66 | 1000.1 |
| 20260505094631 | 65 | 146 | 2.0 | 11.0 | 0.00 | 0.00 | 0.00 | 67 | 1000.1 |
| 20260505094125 | 65 | 185 | 3.0 | 11.0 | 0.00 | 0.00 | 0.00 | 67 | 1000.0 |
| 20260505093628 | 65 | 240 | 3.0 | 11.0 | 0.00 | 0.00 | 0.00 | 67 | 1000.1 |
| 20260505093125 | 65 | 244 | 3.0 | 13.0 | 0.00 | 0.00 | 0.00 | 67 | 1000.1 |
| 20260505092843 | 64 | 221 | 3.0 | 13.0 | 0.00 | 0.00 | 0.00 | 68 | 1000.0 |
| 20260505092118 | 64 | 189 | 3.0 | 13.0 | 0.00 | 0.00 | 0.00 | 68 | 999.9 |
| 20260505091615 | 64 | 223 | 2.0 | 13.0 | 0.00 | 0.00 | 0.00 | 68 | 999.9 |
| 20260505091114 | 64 | 121 | 2.0 | 15.0 | 0.00 | 0.00 | 0.00 | 68 | 1000.0 |
| 20260505090614 | 64 | 184 | 3.0 | 15.0 | 0.00 | 0.00 | 0.00 | 68 | 1000.0 |
| 20260505090110 | 64 | 138 | 2.0 | 10.0 | 0.00 | 0.00 | 0.00 | 68 | 1000.1 |
| 20260505085609 | 64 | 217 | 1.0 | 9.0 | 0.00 | 0.00 | 0.00 | 68 | 1000.1 |
| 20260505085104 | 64 | 91 | 2.0 | 9.0 | 0.00 | 0.00 | 0.00 | 68 | 1000.0 |
| 20260505084602 | 64 | 229 | 2.0 | 9.0 | 0.00 | 0.00 | 0.00 | 68 | 1000.1 |
| 20260505084054 | 64 | 190 | 2.0 | 10.0 | 0.00 | 0.00 | 0.00 | 69 | 1000.1 |
| 20260505083554 | 64 | 178 | 3.0 | 10.0 | 0.00 | 0.00 | 0.00 | 69 | 999.8 |
| 20260505083048 | 64 | 236 | 3.0 | 9.0 | 0.00 | 0.00 | 0.00 | 69 | 999.9 |
| 20260505082545 | 64 | 186 | 3.0 | 9.0 | 0.00 | 0.00 | 0.00 | 69 | 999.7 |
| 20260505082046 | 64 | 202 | 2.0 | 7.0 | 0.00 | 0.00 | 0.00 | 68 | 999.6 |
| 20260505081533 | 65 | 224 | 1.0 | 7.0 | 0.00 | 0.00 | 0.00 | 68 | 999.6 |
| 20260505081034 | 65 | 181 | 2.0 | 7.0 | 0.00 | 0.00 | 0.00 | 67 | 999.7 |
| 20260505080535 | 65 | 222 | 3.0 | 12.0 | 0.00 | 0.00 | 0.00 | 67 | 999.9 |
| 20260505080254 | 65 | 227 | 3.0 | 12.0 | 0.00 | 0.00 | 0.00 | 67 | 999.8 |
| 20260505075534 | 65 | 223 | 3.0 | 16.0 | 0.00 | 0.00 | 0.00 | 67 | 999.6 |
| 20260505075032 | 65 | 102 | 3.0 | 16.0 | 0.00 | 0.00 | 0.00 | 67 | 999.8 |
| 20260505074527 | 65 | 207 | 2.0 | 7.0 | 0.00 | 0.00 | 0.00 | 67 | 999.8 |
| 20260505074022 | 65 | 222 | 2.0 | 7.0 | 0.00 | 0.00 | 0.00 | 67 | 999.7 |
| 20260505073749 | 65 | 130 | 3.0 | 7.0 | 0.00 | 0.00 | 0.00 | 67 | 1000.0 |
| 20260505073013 | 65 | 202 | 3.0 | 9.0 | 0.00 | 0.00 | 0.00 | 67 | 999.9 |
| 20260505072731 | 65 | 183 | 3.0 | 9.0 | 0.00 | 0.00 | 0.00 | 67 | 999.9 |
| 20260505072006 | 65 | 211 | 2.0 | 14.0 | 0.00 | 0.00 | 0.00 | 67 | 999.7 |
| 20260505071457 | 65 | 198 | 3.0 | 14.0 | 0.00 | 0.00 | 0.00 | 67 | 999.9 |
| 20260505070952 | 65 | 73 | 3.0 | 11.0 | 0.00 | 0.00 | 0.00 | 67 | 999.7 |
| 20260505070434 | 65 | 150 | 2.0 | 7.0 | 0.00 | 0.00 | 0.00 | 67 | 999.8 |
| 20260505070152 | 65 | 124 | 2.0 | 6.0 | 0.00 | 0.00 | 0.00 | 67 | 999.8 |
| 20260505065435 | 65 | 141 | 3.0 | 14.0 | 0.00 | 0.00 | 0.00 | 66 | 999.9 |
| 20260505064936 | 65 | 180 | 3.0 | 14.0 | 0.00 | 0.00 | 0.00 | 67 | 999.9 |
| 20260505063932 | 65 | 234 | 2.0 | 7.0 | 0.00 | 0.00 | 0.00 | 67 | 1000.0 |
| 20260505063431 | 65 | 261 | 2.0 | 8.0 | 0.00 | 0.00 | 0.00 | 66 | 1000.2 |
| 20260505063156 | 65 | 111 | 2.0 | 8.0 | 0.00 | 0.00 | 0.00 | 66 | 1000.3 |
| 20260505062426 | 66 | 246 | 3.0 | 11.0 | 0.00 | 0.00 | 0.00 | 66 | 1000.3 |
| 20260505061907 | 66 | 217 | 3.0 | 13.0 | 0.00 | 0.00 | 0.00 | 64 | 1000.3 |
| 20260505061351 | 66 | 229 | 3.0 | 13.0 | 0.00 | 0.00 | 0.00 | 64 | 1000.3 |
| 20260505060850 | 66 | 242 | 4.0 | 13.0 | 0.00 | 0.00 | 0.00 | 64 | 1000.4 |
| 20260505060343 | 66 | 222 | 4.0 | 20.0 | 0.00 | 0.00 | 0.00 | 64 | 1000.6 |
| 20260505055844 | 66 | 87 | 6.0 | 22.0 | 0.00 | 0.00 | 0.00 | 64 | 1000.5 |
| 20260505055339 | 66 | 216 | 6.0 | 22.0 | 0.00 | 0.00 | 0.00 | 64 | 1000.7 |
| 20260505054838 | 66 | 131 | 4.0 | 16.0 | 0.00 | 0.00 | 0.00 | 65 | 1000.6 |
| 20260505054337 | 65 | 238 | 4.0 | 13.0 | 0.00 | 0.00 | 0.00 | 66 | 1000.8 |
| 20260505054106 | 65 | 143 | 3.0 | 13.0 | 0.00 | 0.00 | 0.00 | 67 | 1000.7 |
| 20260505053333 | 65 | 201 | 2.0 | 12.0 | 0.00 | 0.00 | 0.00 | 67 | 1000.7 |
| 20260505052830 | 65 | 236 | 3.0 | 12.0 | 0.00 | 0.00 | 0.00 | 67 | 1000.8 |
| 20260505052555 | 65 | 194 | 3.0 | 11.0 | 0.00 | 0.00 | 0.00 | 67 | 1001.0 |
| 20260505051758 | 64 | 217 | 2.0 | 10.0 | 0.00 | 0.00 | 0.00 | 68 | 1000.8 |
| 20260505051254 | 64 | 180 | 3.0 | 13.0 | 0.00 | 0.00 | 0.00 | 69 | 1001.0 |
| 20260505050754 | 63 | 215 | 2.0 | 13.0 | 0.00 | 0.00 | 0.00 | 70 | 1000.8 |
| 20260505050248 | 62 | 202 | 1.0 | 9.0 | 0.00 | 0.00 | 0.00 | 73 | 1001.0 |
| 20260505040329 | 61 | 302 | 1.0 | 4.0 | 0.00 | 0.04 | 0.00 | 72 | 1002.1 |
| 20260505035828 | 62 | 261 | 2.0 | 7.0 | 0.00 | 0.04 | 0.04 | 70 | 1002.2 |
| 20260505035547 | 63 | 219 | 3.0 | 9.0 | 0.00 | 0.04 | 0.04 | 68 | 1002.5 |
| 20260505034822 | 65 | 263 | 3.0 | 9.0 | 0.00 | 0.04 | 0.04 | 64 | 1002.6 |
| 20260505034313 | 66 | 193 | 2.0 | 13.0 | 0.00 | 0.04 | 0.04 | 64 | 1002.4 |
| 20260505033809 | 66 | 267 | 2.0 | 13.0 | 0.00 | 0.04 | 0.04 | 63 | 1002.2 |
| 20260505033309 | 66 | 257 | 2.0 | 11.0 | 0.00 | 0.04 | 0.04 | 64 | 1001.8 |
| 20260505032805 | 66 | 171 | 2.0 | 7.0 | 0.00 | 0.04 | 0.04 | 64 | 1001.6 |
| 20260505032304 | 66 | 164 | 3.0 | 12.0 | 0.00 | 0.04 | 0.04 | 63 | 1001.5 |
| 20260505031757 | 66 | 219 | 4.0 | 12.0 | 0.00 | 0.04 | 0.04 | 65 | 1001.4 |
| 20260505030756 | 66 | 173 | 3.0 | 11.0 | 0.00 | 0.04 | 0.04 | 65 | 1001.3 |
| 20260505030254 | 65 | 165 | 3.0 | 7.0 | 0.00 | 0.04 | 0.04 | 65 | 1001.4 |
| 20260505025749 | 65 | 183 | 2.0 | 7.0 | 0.00 | 0.04 | 0.04 | 65 | 1001.4 |
| 20260505025513 | 65 | 216 | 2.0 | 7.0 | 0.00 | 0.04 | 0.04 | 66 | 1001.5 |
| 20260505024744 | 65 | 139 | 2.0 | 6.0 | 0.00 | 0.04 | 0.04 | 67 | 1001.5 |
| 20260505024239 | 65 | 200 | 1.0 | 4.0 | 0.00 | 0.04 | 0.04 | 68 | 1001.3 |
| 20260505023736 | 65 | 222 | 1.0 | 9.0 | 0.00 | 0.04 | 0.04 | 68 | 1001.4 |
| 20260505023459 | 65 | 179 | 1.0 | 9.0 | 0.00 | 0.04 | 0.04 | 68 | 1001.5 |
| 20260505022728 | 64 | 203 | 1.0 | 7.0 | 0.00 | 0.04 | 0.04 | 70 | 1001.4 |
| 20260505022215 | 64 | 215 | 1.0 | 7.0 | 0.00 | 0.04 | 0.04 | 70 | 1001.5 |
| 20260505021711 | 64 | 252 | 1.0 | 6.0 | 0.00 | 0.04 | 0.04 | 71 | 1001.5 |
| 20260505021208 | 63 | 174 | 1.0 | 4.0 | 0.00 | 0.04 | 0.04 | 72 | 1001.3 |
| 20260505020656 | 63 | 215 | 1.0 | 5.0 | 0.00 | 0.04 | 0.04 | 72 | 1001.3 |
| 20260505020159 | 62 | 163 | 1.0 | 6.0 | 0.00 | 0.04 | 0.04 | 74 | 1001.4 |
| 20260505015637 | 62 | 192 | 1.0 | 4.0 | 0.00 | 0.04 | 0.04 | 76 | 1001.5 |
| 20260505015355 | 61 | 200 | 0.0 | 3.0 | 0.00 | 0.04 | 0.04 | 77 | 1001.4 |
| 20260505014622 | 61 | 216 | 0.0 | 5.0 | 0.00 | 0.04 | 0.04 | 79 | 1001.4 |